Volver al catálogo

BREEZE-M DEB

ActivoHEO
NORAD 36964·DEBRIS·🇷🇺 Russia

Lanzado Feb 28, 2006 desde Baikonur Cosmodrome

Loading…

Próximos Pases (próximas 24 horas)

TLE

ActualizadoSource: Space-Track

Época: Sep 14, 2026, 06:59 UTC

1 36964U 06006CW  26257.29158482  .00000971  00000-0  76290-3 0  9995
2 36964  52.0167 213.6600 4800861 144.7525 259.4083  5.79514050  8436

Sigue BREEZE-M DEB en tiempo real con AllMySat

Download on the App Store